RH
45 43 37 33 30 29 29 28 29 29 27 26 24 23 24 26 25 25 26 26 27 29 31 35 39 41 42 42 40 38 38 34
45 41 36 31 31 29 29 28 26 25 23 21 20 17 16 17 17 17 16 17 16 16 17 18 21 25 33 41 43 42 38 34
43 39 33 31 30 30 28 25 23 22 20 19 18 17 17 18 18 17 18 17 16 14 13 13 14 15 16 17 19 22 21 28
44 37 31 31 30 28 26 25 24 23 22 21 20 19 19 19 19 19 19 18 17 17 15 15 14 15 15 13 16 12 11 10
43 36 33 31 29 27 26 26 26 26 25 24 22 21 21 20 21 20 19 19 18 17 16 16 16 15 14 13 12 11 10 10
40 35 33 31 29 27 26 26 26 27 28 27 26 25 24 23 23 22 21 20 20 19 19 18 18 17 16 15 15 15 14 15
38 35 34 32 30 28 28 27 26 27 28 27 26 25 25 24 25 25 23 22 21 21 21 20 20 19 19 18 16 16 15 19
40 37 36 34 31 29 29 28 28 28 27 27 26 26 26 26 25 24 24 22 21 21 21 22 22 23 23 21 20 20 17 17
43 41 39 36 32 31 30 29 29 29 28 26 26 26 26 27 27 25 23 22 22 23 23 24 24 25 26 25 25 24 24 23
45 44 41 37 34 34 32 31 31 30 29 27 26 26 26 25 24 24 25 25 25 25 26 26 27 27 27 29 30 30 26 25
46 44 41 38 37 36 34 32 32 31 30 28 27 26 26 25 25 25 27 29 31 31 30 29 29 31 31 30 31 33 33 31
49 46 43 41 40 39 37 35 34 34 33 32 30 28 27 27 28 29 30 31 34 36 35 33 32 33 36 37 37 36 36 35
49 48 46 45 42 42 41 39 38 37 36 34 32 31 30 29 30 31 32 33 35 36 35 35 35 34 39 40 42 42 40 39
50 52 52 51 50 49 47 44 43 41 40 39 39 39 38 38 37 36 35 36 36 35 35 37 36 38 44 44 47 48 44 42
53 55 56 56 56 54 53 49 49 50 49 48 46 46 44 41 38 36 36 37 37 35 35 35 42 40 40 43 46 45 39 40
56 58 59 62 61 61 60 55 56 58 58 54 53 53 51 49 46 45 43 42 41 39 39 39 38 41 42 38 37 37 40 41
56 62 63 63 64 66 67 63 61 62 64 60 61 60 58 55 52 49 47 45 43 41 42 43 50 48 42 39 37 40 32 33
59 63 66 68 67 71 72 70 71 72 72 71 70 65 62 57 55 52 52 50 46 44 48 53 54 51 43 34 29 30 29 27
63 65 68 72 76 77 79 80 80 80 81 80 77 72 67 61 58 58 53 54 52 54 54 57 57 46 36 30 24 20 16 17
59 66 74 78 80 84 86 84 84 83 85 83 81 79 71 64 60 58 58 57 58 60 64 59 49 36 27 22 22 20 17 17